Regional Weather Roundup
Issued by NWS

Home | Current Version | Previous Version | Text Only | Print | Product List | Glossary Off
Versions: 1 2 3 4 5 6 7 8 9 10 11 12 13 14 15 16 17 18 19 20 21 22 23 24 25 26 27 28 29 30 31 32 33 34 35 36 37 38 39 40 41 42 43 44 45 46 47 48 49 50

000
ASUS43 KDTX 262010
RWRMI
MICHIGAN HOURLY REGIONAL WEATHER ROUNDUP
NATIONAL WEATHER SERVICE DETROIT/PONTIAC MI
400 PM EDT THU MAR 26 2015

NOTE: "FAIR" INDICATES FEW OR NO CLOUDS BELOW 12,000 FEET WITH NO
SIGNIFICANT WEATHER AND/OR OBSTRUCTION TO VISIBILITY.

MIZ047>049-052>055-059>063-066>070-074>076-081>083-262100-
SOUTHEAST LOWER MICHIGAN

CITY           SKY/WX    TMP DP  RH WIND       PRES   REMARKS
ADRIAN         PTSUNNY   44  26  49 N10       29.84F
ALMA           CLOUDY    39  25  57 NW12G20   29.85S WCI  32
ANN ARBOR      CLOUDY    43  26  51 NW13      29.82F
BAD AXE        CLOUDY    38  24  55 NW13G20   29.81S WCI  30
CARO           CLOUDY    39  26  59 W10       29.82S WCI  32
DETROIT CITY   CLOUDY    45  26  47 NW10      29.82F
DETROIT        CLOUDY    44  27  51 W12       29.83F
FLINT          CLOUDY    42  26  53 NW16G23   29.83F
GROSSE ILE     CLOUDY    43  30  61 NW10      29.81F
HILLSDALE      PTSUNNY   44  25  47 NW13G24   29.83F
HOWELL         CLOUDY    40  26  56 NW12      29.83S WCI  33

CITY           SKY/WX    TMP DP  RH WIND       PRES   REMARKS
JACKSON        CLOUDY    41  24  51 NW13      29.84F
LAMBERTVILLE   CLOUDY    43  32  65 W7        29.84F
LANSING        CLOUDY    39  23  52 NW14      29.85F WCI  31
LAPEER         CLOUDY    39  26  58 NW12G20   29.82S WCI  32
MASON          CLOUDY    39  24  55 NW13      29.84S WCI  32
MONROE         CLOUDY    43  30  61 W9        29.82F
MT. CLEMENS    CLOUDY    43  28  55 NW10      29.79F
PONTIAC        CLOUDY    40  25  55 NW13      29.81S WCI  32
PORT HOPE        N/A     39  24  55 W12G21    29.78F WCI  32
PORT HURON     CLOUDY    41  28  60 W7        29.82S
TRI CITIES     CLOUDY    40  24  53 W13       29.83F WCI  32
TROY           CLOUDY    43  26  50 W9        29.83F
SAGINAW HB     CLOUDY    39  27  60 W12       29.83S WCI  32
$$
MIZ043>046-050>051-056>058-064>065-071>073-077>080-262100-
SOUTHWEST LOWER MICHIGAN

CITY           SKY/WX    TMP DP  RH WIND       PRES   REMARKS
BATTLE CREEK   CLOUDY    38  24  57 NW15      29.88S WCI  29
BENTON HARBOR  CLOUDY    36  25  64 NW9       29.94S WCI  29
BIG RAPIDS     CLOUDY    34  26  72 NW14      29.86R WCI  24
COLDWATER      CLOUDY    41  23  48 W16       29.86S
FREMONT        CLOUDY    36  23  59 NW13G23   29.89S WCI  27
HOLLAND        CLOUDY    38  25  59 NW13G24   29.92F WCI  30
GRAND RAPIDS   CLOUDY    38  23  55 NW15      29.88S WCI  29
IONIA          CLOUDY    39  23  52 NW13G18   29.85S WCI  32
KALAMAZOO      CLOUDY    39  24  55 NW16      29.89S WCI  30
LUDINGTON      CLOUDY    33  27  77 N14       29.93R WCI  23
MARSHALL       CLOUDY    38  24  55 W10G17    29.86S WCI  32
MOUNT PLEASANT CLOUDY    39  24  53 W8        29.83F WCI  34
MUSKEGON       CLOUDY    37  25  61 NW10G24   29.91F WCI  30
SOUTH HAVEN    CLOUDY    38  24  58 N12       29.93S WCI  30
$$
MIZ016>042-262100-
NORTHERN LOWER MICHIGAN

CITY           SKY/WX    TMP DP  RH WIND       PRES   REMARKS
ALPENA         CLOUDY    39  25  57 W10       29.78F WCI  32
BEAVER ISLAND  MOSUNNY   26  17  67 NW20G30   29.90R WCI  13
BELLAIRE       LGT SNOW  28  22  80 CALM      29.91R
CADILLAC       FLURRIES  31  22  72 NW12      29.84S WCI  21
CHARLEVOIX     CLOUDY    28  21  77 NW18G26   29.92R WCI  15
FRANKFORT      FLURRIES  31  20  63 N15       29.93S WCI  21
GAYLORD        LGT SNOW  26  23  88 NW12G17   29.82R FOG     WCI  16
GRAYLING       FLURRIES  29  23  76 W17G24    29.84R WCI  17
HARBOR SPRINGS CLOUDY    30  21  70 W17G24    29.86R WCI  18
HOUGHTON LAKE  CLOUDY    32  24  72 NW14      29.83R WCI  22
MANISTEE       CLOUDY    30  19  64 N18G25    29.93S WCI  18
OSCODA         CLOUDY    40  26  57 W14       29.78S WCI  32
PELLSTON       CLOUDY    30  23  75 NW17G26   29.85R WCI  18
ROGERS CITY    LGT SNOW  34  32  94 W12       29.80R VSB 1   WCI  25
TRAVERSE CITY  FLURRIES  29  21  72 N9        29.91R WCI  20
$$
MIZ007>008-015-262100-
EASTERN UPPER MICHIGAN

CITY           SKY/WX    TMP DP  RH WIND       PRES   REMARKS
KINROSS        CLOUDY    27  23  86 NW20G30   29.81R WCI  13
MACKINAC ISLAN CLOUDY    32  25  74 NW13G22   29.82R WCI  23
NEWBERRY       CLOUDY    20  15  81 NW15G23   29.89R HAZE    WCI   7
S. S. MARIE    MIX PCPN  25  20  81 W15G24    29.82R WCI  13
MUNISING         N/A     20  13  74 N22G33    29.99R WCI   3
$$
MIZ004>006-011>014-085-262100-
CENTRAL UPPER MICHIGAN

CITY           SKY/WX    TMP DP  RH WIND       PRES   REMARKS
MANISTIQUE     CLOUDY    23  14  69 N21G33    29.92R WCI   8
ESCANABA       CLOUDY    27  10  50 NW15G22   29.96R WCI  15
MENOMINEE      CLOUDY    30  16  55 NW14G23   29.95R WCI  20
SAWYER-GWINN   LGT SNOW  19  14  79 N20G28    29.96R VSB 1   WCI   4
$$
MIZ001>003-009>011-084-262100-
WESTERN UPPER MICHIGAN

CITY           SKY/WX    TMP DP  RH WIND       PRES   REMARKS
IRON MOUNTAIN  FLURRIES  24  12  60 N21       29.96R WCI   9
HOUGHTON       LGT SNOW  18  10  71 NW15      30.04S WCI   4
COPPER HARBOR    N/A     19  11  70 N20       30.05S WCI   3
IRONWOOD       CLOUDY    19  12  73 N10       30.05S WCI   8
$$

ABBREVIATIONS USED IN REMARKS
   TC - TEMPERATURE IN CELSIUS
  WCI - WIND CHILL INDEX
   HX - HEAT INDEX
  VSB - VISIBILITY




USA.gov is the U.S. government's official web portal to all federal, state and local government web resources and services.